Weather History for Morgantown, WV

Change the Weather History Date:

Monday, January 21, 2013

  Actual Average Record
Temperature  
Mean Temperature 23 °F 31 °F  
Max Temperature 32 °F 39 °F 73 °F (1959)
Min Temperature 14 °F 24 °F -18 °F (1985)
Degree Days  
Heating Degree Days 42 34  
Month to date heating degree days 582 711  
Since 1 July heating degree days 2440 2695  
Cooling Degree Days 0 0  
Month to date cooling degree days 0 0  
Year to date cooling degree days 0 0  
Moisture  
Dew Point 13 °F    
Average Humidity 61    
Maximum Humidity 74    
Minimum Humidity 47    
Precipitation  
Precipitation T in 0.09 in 0.50 in (1949)
Month to date precipitation 1.41 1.90  
Year to date precipitation 1.41 1.90  
Sea Level Pressure  
Sea Level Pressure 30.01 in    
Wind  
Wind Speed 7 mph (West)    
Max Wind Speed 16 mph    
Max Gust Speed 26 mph    
Visibility 8 miles    
Events Snow    
T = Trace of Precipitation, MM = Missing Value Source: NWS Daily Summary

Daily Weather History Graph

Daily Weather History Graph

Search for Another Location

Airport:

Trip Planner

Search our weather history database for the weather conditions in past years. The results will help you decide how hot, cold, wet, or windy it might be!

Date:

Astronomy

Jan. 21, 2013 Rise Set
Actual Time 7:35 AM EST 5:26 PM EST
Civil Twilight 7:06 AM EST 5:56 PM EST
Nautical Twilight 6:33 AM EST 6:28 PM EST
Astronomical Twilight 6:01 AM EST 7:01 PM EST
Moon 1:05 PM EST (1/21) 3:02 AM EST (1/21)
Length of Visible Light 10h 49m
Length of Day
9h 51m
Waxing Gibbous, 75% of the Moon is Illuminated
Jan 21
Waxing Gibbous
Jan 26
Full
Feb 3
Last Quarter
Feb 10
New
Feb 17
First Quarter

Hourly Weather History & Observations

Time (EST) Temp. Windchill Dew Point Humidity Pressure Visibility Wind Dir Wind Speed Gust Speed Precip Events Conditions
12:53 AM 26.1 °F 21.9 °F 14.0 °F 60% 30.12 in 10.0 mi Variable 3.5 mph - N/A   Overcast
1:53 AM 27.0 °F 23.0 °F 12.9 °F 56% 30.12 in 10.0 mi WNW 3.5 mph - N/A   Overcast
2:53 AM 26.1 °F - 12.0 °F 55% 30.11 in 10.0 mi Calm Calm - N/A   Overcast
4:53 AM 26.1 °F 21.9 °F 10.9 °F 53% 30.08 in 10.0 mi West 3.5 mph - N/A   Overcast
5:53 AM 26.1 °F - 12.0 °F 55% 30.07 in 10.0 mi Calm Calm - N/A   Overcast
6:53 AM 27.0 °F 20.5 °F 12.0 °F 53% 30.06 in 10.0 mi SW 5.8 mph - N/A   Overcast
7:53 AM 27.0 °F 19.5 °F 12.9 °F 56% 30.05 in 10.0 mi SSW 6.9 mph - N/A   Overcast
8:53 AM 27.0 °F 20.5 °F 12.9 °F 56% 30.04 in 10.0 mi SSW 5.8 mph - N/A   Overcast
9:53 AM 28.0 °F 18.1 °F 12.9 °F 53% 30.03 in 10.0 mi SW 11.5 mph - N/A   Overcast
10:53 AM 28.9 °F 21.9 °F 12.0 °F 49% 30.01 in 10.0 mi Variable 6.9 mph 16.1 mph N/A   Overcast
11:53 AM 30.9 °F 22.2 °F 12.0 °F 46% 29.96 in 10.0 mi SW 10.4 mph 18.4 mph N/A   Overcast
12:53 PM 30.9 °F 24.3 °F 12.0 °F 46% 29.92 in 10.0 mi SW 6.9 mph 17.3 mph N/A   Overcast
1:53 PM 30.0 °F 21.1 °F 15.1 °F 54% 29.93 in 9.0 mi WSW 10.4 mph 21.9 mph 0.00 in Snow Light Snow
2:53 PM 28.0 °F 18.1 °F 19.0 °F 69% 29.96 in 6.0 mi West 11.5 mph 23.0 mph 0.00 in Snow Light Snow
3:15 PM 26.6 °F 18.2 °F 17.6 °F 69% 29.91 in 5.0 mi WNW 8.1 mph 19.6 mph 0.00 in Snow Light Snow
3:53 PM 27.0 °F 18.7 °F 16.0 °F 63% 29.97 in 9.0 mi West 8.1 mph 19.6 mph 0.00 in Snow Light Snow
4:38 PM 26.6 °F 18.2 °F 15.8 °F 64% 29.94 in 7.0 mi WNW 8.1 mph - 0.00 in Snow Light Snow
4:47 PM 24.8 °F 12.9 °F 17.6 °F 74% 29.94 in 2.5 mi West 13.8 mph 19.6 mph 0.00 in Snow Light Snow
4:50 PM 24.8 °F 14.0 °F 17.6 °F 74% 29.94 in 3.0 mi West 11.5 mph 19.6 mph 0.00 in Snow Light Snow
4:53 PM 25.0 °F 15.5 °F 18.0 °F 75% 29.99 in 4.0 mi West 9.2 mph 19.6 mph 0.00 in Snow Light Snow
5:09 PM 24.8 °F 14.6 °F 15.8 °F 69% 29.95 in 9.0 mi WNW 10.4 mph 16.1 mph 0.00 in Snow Light Snow
5:53 PM 24.1 °F 18.2 °F 16.0 °F 71% 30.01 in 10.0 mi West 4.6 mph - 0.00 in   Mostly Cloudy
6:11 PM 24.8 °F 19.1 °F 15.8 °F 69% 29.97 in 8.0 mi Variable 4.6 mph - 0.00 in Snow Light Snow
6:22 PM 23.0 °F 13.9 °F 15.8 °F 74% 29.97 in 9.0 mi West 8.1 mph - 0.00 in Snow Light Snow
6:37 PM 23.0 °F 14.7 °F 15.8 °F 74% 29.97 in 2.5 mi Variable 6.9 mph 18.4 mph 0.00 in Snow Light Snow
6:46 PM 21.2 °F 14.9 °F 17.6 °F 86% 29.98 in 3.0 mi Variable 4.6 mph 16.1 mph 0.00 in Snow Light Snow
6:53 PM 21.9 °F 13.4 °F 17.1 °F 82% 30.03 in 9.0 mi West 6.9 mph - 0.00 in Snow Light Snow
7:20 PM 21.2 °F 9.5 °F 15.8 °F 80% 29.98 in 4.0 mi WNW 11.5 mph 23.0 mph 0.00 in Snow Light Snow
7:53 PM 21.0 °F 9.3 °F 12.9 °F 71% 30.04 in 7.0 mi West 11.5 mph 18.4 mph 0.00 in Snow Light Snow
8:53 PM 19.9 °F 7.9 °F 10.0 °F 65% 30.05 in 9.0 mi WNW 11.5 mph 23.0 mph 0.00 in Snow Light Snow
9:53 PM 17.1 °F 5.0 °F 1.0 °F 50% 30.07 in 9.0 mi West 10.4 mph 24.2 mph 0.00 in Snow Light Snow
10:53 PM 16.0 °F 4.4 °F -0.0 °F 49% 30.09 in 10.0 mi West 9.2 mph 19.6 mph 0.00 in   Scattered Clouds
11:53 PM 14.0 °F 1.2 °F -2.0 °F 49% 30.09 in 10.0 mi West 10.4 mph 18.4 mph N/A   Clear